Вернуться в каталог

VEERY-0G

АктивенНаукаSSO
NORAD 66675·PAYLOAD·🇺🇸 United States

Запущен Nov 28, 2025 с Vandenberg Space Force Base

Loading…

Ближайшие Пролёты (ближайшие 24 часа)

TLE

СвежийSource: Space-Track

Эпоха: Sep 14, 2026, 03:38 UTC

1 66675U 25276K   26257.15199440  .00006758  00000-0  29740-3 0  9998
2 66675  97.4098 329.3860 0006840  62.6720 297.5212 15.22160329 43951

Отслеживайте VEERY-0G в реальном времени с AllMySat

Download on the App Store